Location: Wethersfield
(51.9500°N, 0.4833°E)
Time: 00:43:33
(UTC+00:00)

Daily predictions for brighter satellites

Satellite Brightness Start Highest point End
(mag) Time Altitude Azimuth Time Altitude Azimuth Time Altitude Azimuth
CENTAUR R/B 4.4 02:05:13 29° NNE 02:05:13 29° NNE 02:09:47 10° NE
ACS3 Solar Sail 4.0 02:00:40 10° NE 02:03:45 18° ENE 02:03:45 18° ENE
ADEOS Rocket 4.4 02:33:06 10° NNE 02:38:45 38° E 02:38:45 38° E
Cosmos 2219 Rocket 4.0 02:55:06 27° E 02:55:06 27° E 02:58:59 10° NE
CZ-2D R/B 4.3 03:13:18 10° N 03:14:24 16° N 03:14:24 16° N
USA 267 3.7 03:14:08 10° ENE 03:20:18 52° SE 03:20:18 52° SE
Cosmos 1980 Rocket 4.2 03:27:56 18° N 03:27:56 18° N 03:29:54 10° NNE
H-2A R/B 3.8 03:26:06 10° NNE 03:28:05 24° NNE 03:28:05 24° NNE
Cosmos 2278 Rocket 3.6 03:29:48 28° N 03:31:34 34° NE 03:36:39 10° ESE
USA 238 DEB 3.9 03:33:04 56° N 03:33:04 56° N 03:38:53 10° NE
USA 238 3.9 03:33:10 57° N 03:33:10 57° N 03:39:00 10° NE
Cosmos 2333 Rocket 3.0 03:39:31 44° NNE 03:39:31 44° NNE 03:43:25 10° NNE
ADEOS II 4.0 03:38:16 10° N 03:39:55 20° N 03:39:55 20° N
Lacrosse 5 rocket 4.0 03:46:58 14° ENE 03:46:58 14° ENE 03:47:31 10° ENE
COSMOS 2455 3.0 03:45:06 66° NNE 03:45:06 66° NNE 03:50:17 10° NE
Cosmos 2298 Rocket 4.5 03:46:57 59° E 03:46:57 59° E 03:51:45 10° NNE
ACS3 Solar Sail 1.8 03:42:35 10° NNE 03:47:53 71° N 03:47:53 71° N
Resurs 1-4 Rocket 4.2 03:47:06 10° N 03:48:13 16° N 03:48:13 16° N
CENTAUR R/B 4.0 03:52:18 29° NNW 03:54:55 37° N 04:02:48 10° ENE
Cosmos 2360 Rocket 2.5 03:59:09 57° N 03:59:09 57° N 04:03:47 10° NNE
Cosmos 2322 Rocket 2.6 03:59:32 51° N 03:59:32 51° N 04:03:59 10° NNE
USA 234 3.3 03:52:41 10° SE 03:58:53 61° SSW 03:58:53 61° SSW
SL-16 R/B 3.2 04:06:02 34° NNW 04:06:02 34° NNW 04:09:51 10° NNE
Cosmos 44 Rocket 3.5 04:05:02 71° ESE 04:05:02 71° ESE 04:09:42 10° SE
Cosmos 1943 Rocket 2.7 04:06:17 30° N 04:08:48 54° NE 04:14:12 10° SE
H-2A R/B 4.4 04:08:09 10° NNE 04:11:15 43° ENE 04:11:15 43° ENE
Okean 1-7 3.6 04:13:10 53° NE 04:13:10 53° NE 04:16:44 10° NNE
Cosmos 1862 Rocket 4.5 04:15:09 40° NNE 04:15:09 40° NNE 04:17:57 10° NNE
ARGOS 3.1 04:09:01 10° NNE 04:14:29 84° ESE 04:16:18 44° S
PAYLOAD A 4.4 04:09:52 10° NNE 04:15:17 66° ESE 04:20:30 10° S
Cosmos 1140 Rocket 3.5 04:15:55 54° N 04:17:03 78° ENE 04:22:10 10° SSE
Timation 2 Rocket 4.1 04:14:48 27° NNW 04:18:46 80° NE 04:25:14 10° SE
CZ-2C R/B 2.4 04:14:49 10° NNE 04:19:50 82° ESE 04:21:32 43° S
Cosmos 1809 Rocket 4.4 04:18:23 10° S 04:24:30 84° E 04:30:37 10° NNE
ADEOS Rocket 3.3 04:18:36 10° N 04:24:48 53° WNW 04:25:40 50° W
NOSS 3-1 (C) 3.6 04:27:25 30° S 04:29:34 53° SE 04:35:09 10° NE
Iridium 4 Rocket 4.3 04:26:31 10° N 04:30:42 40° E 04:34:39 10° SSE
SJ 16-02 3.7 04:27:40 10° N 04:30:52 20° NE 04:34:02 10° E
Cosmos 2100 Rocket 3.8 04:24:53 10° N 04:31:04 86° WSW 04:37:14 10° S
Cosmos 2219 Rocket 2.2 04:36:49 53° W 04:37:46 61° NW 04:43:25 10° NNE
SL-24 R/B - RUBIN 2 3.8 04:39:23 53° WSW 04:40:35 78° NW 04:45:28 10° NE
TIMED 4.3 04:40:17 58° NNW 04:41:06 89° E 04:45:21 10° SSE
Cosmos 1707 Rocket 4.0 04:42:43 45° NNW 04:42:43 45° NNW 04:46:05 10° N
COSMOS 2428 2.9 04:42:00 10° SSW 04:47:39 71° ESE 04:53:20 10° NE
USA 59 Rocket -0.5 04:50:48 61° SE 04:50:53 62° SE 04:53:49 10° NE
SL-08 RB Rocket 3.6 04:46:54 10° N 04:51:27 65° WNW 04:53:29 31° SW
Cosmos 1459 Rocket 3.9 04:45:55 10° NNW 04:52:16 70° W 04:58:33 10° S
Cosmos 1864 Rocket 4.4 04:46:53 10° N 04:53:11 86° W 04:59:30 10° S
Cosmos 2322 3.7 04:50:01 13° SSW 04:55:06 88° ESE 05:00:49 10° NNE
FengYun 1-2 T 4.3 04:50:50 10° NNE 04:56:25 78° ESE 05:02:01 10° SSW
CZ-2D R/B 4.2 04:54:51 10° NNW 04:55:38 12° NNW 04:55:38 12° NNW
Cosmos 407 Rocket 3.4 04:54:46 15° NNW 04:59:01 90° WNW 05:04:07 10° SSE
COSMO-SKYMED 1 2.9 04:55:39 10° SSE 04:59:43 62° ENE 05:03:49 10° N
Meteor 2-21 4.3 04:54:04 10° SSW 05:00:10 75° WNW 05:06:15 10° N
SKYMED 2 3.5 04:56:40 10° SSE 05:01:01 86° ENE 05:05:24 10° NNW
Cosmos 1725 Rocket 3.9 04:56:22 10° NNW 05:02:43 82° W 05:09:02 10° S
Cosmos 1727 Rocket 4.0 04:56:43 10° SSW 05:02:46 54° WNW 05:08:54 10° N
USA 267 3.2 04:57:14 10° ENE 05:03:47 76° NNW 05:07:39 27° WSW
Cosmos 2228 Rocket 3.3 05:03:28 43° W 05:03:51 44° WNW 05:08:06 10° N
H-2A R/B 3.5 05:06:20 10° N 05:08:34 18° NW 05:08:34 18° NW
Cosmos 1802 Rocket 4.0 05:04:15 10° NNW 05:10:37 67° W 05:16:50 10° S
Cosmos 1269 Rocket 4.5 05:09:27 31° WNW 05:11:02 38° WSW 05:15:51 10° S
Cosmos 1980 Rocket 4.3 05:09:40 11° NNW 05:11:23 12° NNW 05:13:28 10° N
NOSS 3-1 (A) 3.9 05:09:11 10° SSW 05:13:45 49° ESE 05:19:17 10° NE
Cosmos 2233 Rocket 4.0 05:07:34 10° N 05:13:57 86° E 05:20:15 10° S
Cosmos 2278 Rocket 2.2 05:11:40 17° NW 05:15:59 60° WSW 05:21:31 10° SSE
Cosmos 1328 3.5 05:13:19 10° SSW 05:16:55 59° WNW 05:20:32 10° N
Cosmos 2251 Rocket 3.7 05:12:28 10° NNW 05:17:51 77° ENE 05:23:12 10° SSE
Cosmos 1703 Rocket 3.4 05:13:59 10° SSW 05:18:19 73° W 05:22:44 10° N
NOSS 2-1 (E) 2.7 05:18:53 26° SW 05:20:41 88° SE 05:23:45 10° NE
Cosmos 1939 Rocket 3.0 05:17:04 10° N 05:20:45 44° WNW 05:23:42 15° SW
Lacrosse 5 rocket 1.7 05:20:39 31° NW 05:21:27 35° N 05:24:36 10° ENE
Cosmos 2173 Rocket 4.3 05:15:50 10° NNW 05:21:29 41° W 05:27:06 10° SSW
ADEOS II 4.1 05:19:50 10° NNW 05:20:43 12° NNW 05:20:43 12° NNW
Meteor 2-16 Rocket 4.4 05:16:39 10° SSW 05:22:45 81° W 05:28:55 10° N
Cosmos 2333 Rocket 3.5 05:21:32 21° NW 05:22:55 22° NNW 05:27:24 10° NNE
USA-17 4.1 05:22:08 40° WNW 05:23:05 71° SW 05:26:20 10° SE
Cosmos 2237 Rocket 2.8 05:18:11 10° SSW 05:23:44 60° ESE 05:29:18 10° NE
SL-08 R/B 4.4 05:18:46 10° NNW 05:24:50 70° W 05:30:57 10° S
BlueWalker 3 3.4 05:27:40 19° SW 05:28:00 19° SW 05:30:37 10° S
Cosmos 2292 Rocket 3.8 05:24:27 10° SSW 05:28:46 82° WNW 05:34:27 10° N
ACS3 Solar Sail 2.9 05:26:33 10° N 05:30:53 21° NW 05:32:02 20° WNW
COSMOS 2455 3.8 05:28:15 21° WNW 05:30:56 29° NNW 05:36:11 10° NNE
Meteor 1-24 Rocket 3.7 05:27:49 10° SSW 05:33:31 60° WNW 05:39:02 10° N
Cosmos 2369 Rocket 3.4 05:28:20 10° NNW 05:33:40 39° NE 05:38:59 10° ESE
Helios 1A Rocket 2.8 05:30:58 10° S 05:34:11 39° W 05:36:22 18° NW
CZ-4 R/B 3.8 05:30:21 10° NNE 05:35:16 72° WNW 05:40:05 10° SSW
Cosmos 1782 Rocket 3.6 05:32:51 10° NNW 05:37:12 56° W 05:41:28 10° S
SJ-11-01 4.5 05:37:48 10° N 05:42:17 47° WNW 05:46:46 10° SW
Cosmos 2360 Rocket 3.6 05:40:55 17° WNW 05:43:06 21° NNW 05:47:22 10° NNE
Cosmos 2322 Rocket 3.6 05:41:20 16° WNW 05:43:29 20° NNW 05:47:37 10° NNE
Cosmos 2123 Rocket 4.1 05:38:16 10° SSW 05:44:17 50° WNW 05:50:19 10° N
NOAA 12 4.1 05:39:14 10° NNE 05:44:32 70° WNW 05:49:49 10° SSW
Meteor 2-5 Rocket 3.9 05:38:54 10° SSW 05:44:42 56° WNW 05:50:28 10° N
Cosmos 1420 Rocket 4.5 05:40:42 10° SSW 05:45:54 67° ESE 05:51:11 10° NNE
Gbstr 26 Del rocket 3.8 05:41:19 13° WSW 05:45:55 73° SSE 05:52:13 10° E
CENTAUR R/B 3.6 05:39:24 10° NW 05:47:04 62° NE 05:56:10 10° ESE
Okean 1-7 4.4 05:49:34 17° WNW 05:50:01 18° WNW 05:52:56 10° NNW
SL-16 R/B 4.0 05:47:53 12° NW 05:50:14 15° NNW 05:53:26 10° NNE
TiPS 4.4 05:48:43 10° SW 05:51:09 78° SE 05:53:27 10° NE
Cosmos 1943 Rocket 2.9 05:47:50 12° NW 05:52:17 32° WSW 05:57:05 10° SSW
Cosmos 2016 Rocket 4.4 05:46:51 10° NNW 05:52:46 41° W 05:58:38 10° SSW
ARGOS 4.4 05:50:08 10° N 05:54:06 21° NW 05:57:45 11° W
Cosmos 1812 2.4 05:53:18 10° N 05:56:14 66° ENE 05:59:08 10° SSE
CZ-2C R/B 3.7 05:53:49 10° N 05:57:20 20° NW 06:00:45 11° W
Cosmos 1300 Rocket 4.2 05:53:40 10° NNW 05:57:34 33° W 06:01:26 10° SSW
Cosmos 374 Rocket 4.4 05:58:01 10° WSW 06:01:50 65° NW 06:06:24 10° NE
Cosmos 2346 Rocket 4.4 05:56:46 10° SSW 06:02:56 81° W 06:09:05 10° N
NOSS 2-1 (C) 3.4 06:00:52 13° W 06:03:24 34° NW 06:06:10 10° NNE
NOSS 2-1 (D) 3.6 06:04:54 12° W 06:07:25 30° NW 06:10:06 10° NNE
SJ 16-02 1.3 06:05:10 10° NNW 06:09:28 68° WSW 06:13:43 10° SSE
Iridium 4 Rocket 4.1 06:06:43 10° NNW 06:10:13 23° W 06:13:34 10° SW
Aureole 3 Rocket 3.3 06:06:26 10° NNW 06:10:30 67° W 06:16:07 10° S
Okean 1 Rocket 4.2 06:06:36 10° N 06:10:48 45° ENE 06:14:57 10° SSE
Cosmos 2061 Rocket 4.3 06:07:23 10° NNW 06:13:11 42° W 06:18:56 10° SSW
CBERS-1 4.1 06:09:31 10° NNE 06:14:41 89° ESE 06:19:48 10° SSW
SWARM C 4.5 06:14:31 10° S 06:17:48 66° W 06:21:08 10° N
SWARM A 4.1 06:14:35 10° S 06:17:53 78° W 06:21:13 10° N
IRS-1D 4.1 06:14:25 10° N 06:18:48 32° WNW 06:23:08 10° WSW
Cosmos 1190 Rocket 4.4 06:13:51 10° NW 06:18:52 45° WSW 06:23:49 10° S
Cosmos 676 Rocket 4.0 06:14:43 10° NNW 06:19:57 67° WSW 06:25:07 10° SSE
NOSS 3-1 (C) 3.6 06:15:36 10° W 06:20:27 43° NNW 06:26:28 10° NE
Cosmos 1378 Rocket 3.7 06:16:14 10° S 06:20:30 76° E 06:24:47 10° NNE
Cosmos 1869 3.5 06:17:59 10° NNW 06:21:14 36° W 06:24:28 10° SSW
SL-16 R/B 3.3 06:16:32 10° S 06:22:01 51° ESE 06:27:31 10° NE
Cosmos 2219 Rocket 3.6 06:18:54 10° WNW 06:22:54 19° NNW 06:26:56 10° NNE
In-Cosmos 22 Rocket 4.3 06:17:09 10° SSW 06:22:59 85° WNW 06:28:51 10° NNE
Cosmos 2056 Rocket 3.7 06:21:24 10° SSW 06:26:49 87° ESE 06:32:15 10° NNE
Okean 2 Rocket 3.2 06:24:09 10° N 06:28:33 79° E 06:32:54 10° SSE
Cosmos 371 Rocket 3.5 06:25:24 10° NNW 06:30:07 52° WSW 06:34:48 10° S
NOSS 0 Rocket 4.3 06:24:56 10° WSW 06:30:49 45° NW 06:36:44 10° NNE
COSMOS 2428 3.6 06:27:25 10° WSW 06:32:24 30° NW 06:37:24 10° NNE
